If you wish to contribute or participate in the discussions about articles you are invited to join SKYbrary as a registered user

 Actions

Abeid Amani Karume International Airport

From SKYbrary Wiki

HTZA
Airport
ICAO: HTZA – IATA: ZNZ
Summary
Name Abeid Amani Karume International Airport
Region Africa
Territory Tanzania TZ.gif
Location Zanzibar City, Unguja Airport
Serving Zanzibar
Elevation 16.459 m <br />54 ft16.459 m <br />
Coordinates 6° 13' 19.99" S, 39° 13' 30.00" E
Runways
Designator Length Width Surface ROPS
18/36 2462 m8,077.428 ft <br /> 45 m147.638 ft <br /> ASP yes/yes


METAR
Observation HTZA 220500Z 21012KT 9999 BKN011 FEW012CB SCT070 26/23 Q1015 NOSIG
Station Zanzibar / Kisauni
Date/Time 22 April 2021 05:00:00
Wind direction 210°
Wind speed 12 kts
Lowest cloud amount broken clouds
Temperature 26°C
Dew point 23°C
Humidity 83%
QNH 1015 hPa
Weather condition n/a

Abeid Amani Karume International Airport is the main airport in the Zanzibar Archipelago located on Unguja Island. It was previously known as Kisauni Airport and Zanzibar International Airport.

Climatology

Tropical rainforest climate (Köppen climate classification Af)

Maps

Terrain

Loading map...

Airport Layout

Loading map...


Accidents & Serious Incidents at or in vicinity of HTZA

None on SKYbrary